Location: Seattle
(47.6064°N, 122.3308°W)
Time: 05:45:14
(UTC-08:00)

S-56A Canister/Altair - Pass Details

Date: 04 December 2020
Orbit: 633 x 2499 km, 38.9° (Epoch: 23 January)

Event Time Altitude Azimuth Distance (km) Brightness Sun altitude
Rises 22:32:03 0° 275° (W) 5,151 12.1 -59.3°
Enters shadow 22:35:58 - 267° (W) 3,943 11.3 -59.7°
Reaches altitude 10° 22:36:22 10° 266° (W) 3,825 - -59.8°
Maximum altitude 22:44:02 29° 212° (SSW) 2,077 - -60.6°
Drops below altitude 10° 22:49:34 10° 154° (SSE) 2,706 - -61.1°
Sets 22:52:06 0° 142° (SE) 3,447 - -61.4°
